Lid_Strength_Index
4 4 4 3 3 4 3 3 4 4 4 4 3 3 3 3 4 8 9 6 6 4 6 10 10 11 10 10 9 9 12 16 15 13 11 9 11 9 9 10 10 9 9 8 7
4 4 4 4 4 4 4 4 4 3 3 3 3 3 4 4 8 9 6 4 4 5 9 11 12 11 14 13 13 12 14 14 11 11 12 11 11 10 11 10 10 9 7 7 7
4 4 5 4 4 4 4 4 4 3 3 3 3 4 4 6 11 12 5 4 5 7 9 10 11 12 15 14 13 13 15 13 13 12 11 12 13 11 13 14 11 12 12 10 8
4 4 5 4 4 4 4 4 4 4 4 4 4 4 4 10 19 11 6 6 6 9 10 11 12 15 16 16 13 17 14 13 13 11 12 12 11 13 12 14 11 11 11 10 10
4 5 5 5 4 4 4 4 4 4 4 4 4 5 10 15 14 8 6 7 9 10 12 13 14 14 16 15 15 16 15 14 13 12 12 11 12 13 13 11 10 10 10 11 11
5 4 5 5 5 4 4 4 4 4 5 5 5 6 12 18 10 9 10 10 10 12 13 12 13 12 15 15 16 14 14 14 13 12 12 12 12 12 13 11 11 11 11 11 11
5 5 5 5 5 4 4 4 5 5 5 5 5 8 13 15 10 10 10 11 11 11 13 11 11 13 13 15 12 13 16 14 13 10 10 9 12 14 11 11 12 12 11 11 10
5 5 5 5 5 5 4 4 5 6 5 5 6 11 15 10 11 11 10 11 10 10 10 9 9 11 13 12 13 14 14 16 11 10 9 10 14 11 9 11 12 12 12 11 11
5 5 5 5 5 5 5 5 6 6 6 7 12 14 16 9 13 11 11 12 10 9 9 8 10 12 12 14 17 14 17 15 13 10 10 11 13 10 8 9 11 11 11 11 11
5 5 5 5 5 5 6 6 7 9 9 10 11 16 14 15 12 11 10 10 11 11 11 12 12 14 14 16 22 16 15 14 14 12 11 12 12 10 9 8 9 10 10 11 11
5 5 5 5 5 6 9 12 14 15 14 15 15 15 14 11 10 11 10 11 11 12 15 13 16 17 14 12 12 13 13 14 13 11 11 13 12 11 9 9 9 9 10 10 11
5 5 5 5 5 6 11 14 13 13 17 13 13 12 11 11 14 12 10 13 13 15 14 16 19 13 11 11 11 12 13 15 13 11 11 13 13 11 10 10 9 9 9 10 11
5 5 4 4 5 10 12 12 9 11 19 15 13 13 13 12 14 14 11 12 14 15 15 19 14 11 11 12 13 13 14 14 15 12 12 13 15 13 11 10 9 9 8 8 11
5 5 4 4 10 11 13 10 9 12 26 17 16 13 12 12 14 10 9 11 13 17 14 18 12 11 12 14 12 16 11 12 14 16 19 13 21 15 13 13 12 10 9 9 9
4 5 4 5 10 13 11 10 9 13 27 16 15 10 11 13 13 12 8 11 15 14 17 17 14 13 15 13 11 15 11 14 14 17 17 18 19 18 15 16 15 13 11 9 9
4 4 4 8 11 11 10 10 13 22 27 18 15 14 14 13 12 11 11 10 10 15 15 13 10 13 13 11 11 11 15 15 19 23 28 18 18 20 18 16 15 13 12 10 9
4 4 6 8 12 10 10 14 22 25 17 18 16 14 14 15 13 14 17 20 21 22 25 15 14 10 10 18 16 19 24 27 28 30 26 16 19 18 16 14 14 14 13 11 10
4 4 7 9 10 10 13 19 27 22 20 15 15 14 16 14 15 19 21 21 17 23 18 25 23 15 10 14 19 21 21 20 26 26 23 17 23 18 14 13 13 13 12 12 11
4 9 10 10 10 11 17 26 21 19 16 16 15 19 19 15 19 20 23 22 18 19 23 27 23 12 11 11 14 21 21 15 18 28 27 23 17 15 14 15 15 15 14 14 13
8 11 11 10 11 14 20 19 20 15 14 15 19 17 22 19 22 21 21 16 19 14 14 20 21 13 12 13 14 16 12 18 23 27 31 26 23 23 19 19 17 17 16 15 13
11 13 12 11 12 17 21 23 18 14 12 15 16 17 17 18 21 23 19 15 14 14 12 24 20 20 16 22 23 19 19 15 16 19 24 27 26 20 19 18 18 17 16 16 14
12 16 12 10 17 19 25 19 14 13 11 12 12 14 16 16 18 19 18 15 12 13 21 18 21 26 21 16 16 17 16 15 20 23 20 21 24 16 17 17 17 17 15 15 14
13 13 11 12 18 21 18 17 15 13 13 13 14 12 12 16 17 16 15 12 11 13 20 20 20 23 23 20 20 22 15 14 15 17 23 24 24 17 16 17 17 17 16 16 15
13 17 15 14 15 18 17 18 16 13 13 11 13 12 15 16 14 16 16 12 11 12 9 11 16 18 21 20 22 19 17 16 17 22 22 21 21 18 18 19 18 17 16 16 16
14 16 15 18 16 16 15 14 15 16 13 11 12 13 15 17 18 16 14 13 11 11 13 15 23 25 20 18 18 19 19 18 19 20 22 23 22 19 18 19 19 18 17 17 17
15 16 19 16 15 16 15 16 14 13 12 13 13 12 13 14 15 14 14 14 15 16 18 15 22 24 19 20 28 25 19 18 17 18 19 20 22 18 17 18 19 19 19 19 18
11 12 14 15 16 17 17 16 15 13 12 10 9 10 13 11 10 9 9 10 12 17 16 18 20 20 25 26 26 24 23 19 19 18 19 21 19 19 19 19 19 19 19 20 19